Aérodrome :
LOGIN :

S'inscrire | Disclaimer

   EN    FR    IT 

 










Légende :    VFR   VFR Marginal   IFR   IFR Intensif   IFR Très Intensif
Visi : 
Plafond : 
>= 8 km
>= 3000ft
5 à 8 km
1000 à 3000 ft
1500m à 5 km
500 à 1000 ft
800 à 1500m
200 à 500 ft
< 800m
< 200 ft
Symboles :   Orages  Brouillard  Fortes neiges  Fortes précipitations  Vent > 20 kt
SIGMETs :   Divers  Orages  Givrage  Turbulence  Onde Orograph.  Cendres Volcan.






- Altitude de l'aérodrome : 143 ft
- Code IATA : VDP


EKVD - Kolding Vamdrup

DERNIER METAR :
  • 151050Z 29006KT 9999 -SHRA FEW018 SCT020CB BKN075 15/13 Q1012

METARs EXPIRÉS :
  • 151020Z 31012G22KT 280V340 9999 -SHRA FEW018 BKN020CB 15/13 Q1012
  • 151013Z 29009G22KT 260V320 9999 SHRA FEW018 SCT020CB 18/12 Q1012
  • 150950Z 31006KT 240V360 9999 VCSH FEW018CB SCT020TCU SCT070 18/13 Q1012
  • 150850Z 33005KT 300V010 9999 SCT012TCU 16/13 Q1012

TAF TAF EKVD
Valide du 15 à 09h jusqu'au 15 à 16h UTC


150858Z 1509/1516 30005KT 9999 SCT020
TEMPO 1509/1516 SHRA SCT030CB
PROB40
TEMPO 1510/1516 TSRA



MET'MAP, la Météo Aéronautique d'un coup d'oeil ! - Copyright ORBIFLY Décembre 2007 - Disclaimer

ORBIFLY MET'MAP TEAM :

Programmation & Développement : Alexandra Zaïnal
Sur une idée originale de : Baudouin d'Aumeries
Assistance à la programmation : Marc-Olivier Méhu
Soutien technique & logistique : Manuel Goepfert

Contact : metmap@orbifly.com




SOURCES & CREDITS :

   NOAA